Weather in Novokalcheve

Ukraine / Odesa District     47°11′41″N   31°02′01″E
temp.,
°C
wind,
m/s
gust,
m/s
humid.,
%
clouds,
%
prec.,
mm/h
press.,
hPa
HPBL,
m
12 may, wed
wed1200:00+13e358786 0.0 1015199
03:00+11e367364 0.0 1014219
06:00+7ene48851 0.0 1015209
09:00+11ene57653 0.0 1014779
12:00+13ne5553100 0.0 10141801
15:00+14nne345096 0.0 10131550
18:00+13ne555943 0.0 1013837
21:00+10nne227388 0.0 101213
13 may, thu
thu1300:00+8e1177100 0.0 101210
03:00+7se118296 0.0 101210
06:00+7se348593 0.0 101173
09:00+11se3672100 0.0 1011414
12:00+16sse5753100 0.0 10111164
15:00+14sse6864100 0.0 1010614
18:00+16sse6955100 0.0 1009801
21:00+11sse497993 0.0 1009187
14 may, fri
fri1400:00+9sse358376 0.0 100972
03:00+9sse37865 0.0 1008121
06:00+9ese349087 0.0 100767
09:00+16s687028 0.2 1008608
12:00+20s795919 0.4 10071413
15:00+23sw794586 0.4 10072379
18:00+18s2368100 0.1 100872
21:00+15s47825 0.1 1009152
15 may, sat
sat1500:00+13ssw348714 0.0 101049
03:00+13ssw228399 0.0 101017
06:00+13sw128480 1.1 101122
09:00+18wsw246860 1.1 1012491
12:00+22ssw464921 0.0 10121780
15:00+24sw673945 0.0 10112587
18:00+20s575667 0.0 1011420
21:00+16s347247 0.1 101193
16 may, sun
sun1600:00+13sse1178100 0.0 101110
03:00+13e1278100 0.0 101110
06:00+13ene3378100 0.0 101147
09:00+18e4563100 0.0 1010381
12:00+23ese454851 0.0 10091464
15:00+25ese2339100 0.0 10072342
18:00+21wsw565697 0.0 1006345
21:00+17nw5975100 0.3 1004199